Flag for Guatemala Weather past 2 weeks in Escuintla, Guatemala

Now
63 °F

Passing clouds.


Feels Like: 63 °F
Forecast: 65 / 91 °F
Wind: 12 mph from North

Location: Guatemala Aeropuertola Aurora

Current Time: Oct 26, 2014 at 12:24:38 AM

Latest Report: Oct 26, 2014 at 12:00 AM


Visibility: N/A

Pressure: 30.27 "Hg

Humidity: 83%

Dew point: 57 °F

Location of EscuintlaLocation

Historic Weather in Escuintla — Graph

°F

Escuintla temperature yesterday

Maximum temperature yesterday: 75 °F (at 1:00 PM)
Minimum temperature yesterday: 63 °F (at 12:00 AM)
Average temperature yesterday: 66 °F

Past Weeks' High & Low Weather Summary

 TemperatureHumidityPressure
High77 °F (Oct 17, 11:00 AM)100% (Oct 11, 6:00 AM)30.33 "Hg (Oct 11, 6:00 AM)
Low61 °F (Oct 11, 6:00 AM)54% (Oct 24, 2:00 PM)30.07 "Hg (Oct 21, 2:00 PM)
Average66 °F87%30.22 "Hg
* Reported Oct 10 11:00 PM — Oct 25 11:00 PM, Escuintla, Weather by CustomWeather, © 2014

Note: Actual official high and low records may vary slightly from our data, if they occured in-between our weather recording intervals... More about our weather records

Advertising

Escuintla weather history for previous 24 hours

 ConditionsComfort  
Time TempWeatherWind HumidityBarometerVisibility
11:00 PM
Oct 25
63 °FPassing clouds.12 mph83%30.30 "HgN/A
10:00 PM63 °FPassing clouds.14 mph83%30.30 "HgN/A
9:00 PM63 °FPassing clouds.12 mph83%30.30 "HgN/A
8:00 PM64 °FPassing clouds.12 mph73%30.30 "HgN/A
7:00 PM64 °FClear.14 mph73%30.30 "Hg10 mi
6:00 PM66 °FPassing clouds.9 mph73%30.27 "HgN/A
5:00 PM68 °FPartly sunny.14 mph69%30.24 "HgN/A
4:00 PM68 °FPartly sunny.16 mph69%30.24 "HgN/A
3:00 PM72 °FPartly sunny.18 mph61%30.24 "HgN/A
2:00 PM73 °FPartly sunny.16 mph61%30.27 "HgN/A
1:00 PM75 °FScattered clouds.16 mph54%30.27 "HgN/A
12:00 PM72 °FBroken clouds.18 mph65%30.30 "HgN/A
11:00 AM70 °FBroken clouds.18 mph69%30.33 "HgN/A
10:00 AM68 °FPartly sunny.16 mph73%30.33 "HgN/A
9:00 AM66 °FPartly sunny.14 mph78%30.33 "HgN/A
8:00 AM64 °FPartly sunny.14 mph78%30.30 "HgN/A
7:00 AM64 °FPartly sunny.14 mph88%30.30 "HgN/A
6:00 AM63 °FPartly sunny.12 mph83%30.27 "HgN/A
5:00 AM63 °FClear.12 mph83%30.27 "Hg10 mi
4:00 AM63 °FPassing clouds.12 mph83%30.27 "HgN/A
3:00 AM63 °FPassing clouds.12 mph83%30.27 "HgN/A
2:00 AM64 °FPassing clouds.9 mph83%30.27 "HgN/A
1:00 AM64 °FPassing clouds.12 mph83%30.27 "HgN/A
12:00 AM63 °FPassing clouds.9 mph88%30.30 "HgN/A
Weather by CustomWeather, © 2014

See weather overviewHow to use our weather pages